TimeEST,TemperatureF,Dew PointF,Humidity,Sea Level PressureIn,VisibilityMPH,Wind Direction,Wind SpeedMPH,Gust SpeedMPH,PrecipitationIn,Events,Conditions,WindDirDegrees,DateUTC
12:53 AM,48.0,46.9,96,29.70,6.0,East,5.8,-,0.00,,Overcast,80,2012-12-18 05:53:00
1:40 AM,46.4,46.4,100,29.66,8.0,ENE,10.4,-,0.02,Rain,Light Rain,60,2012-12-18 06:40:00
1:53 AM,46.9,46.0,97,29.67,10.0,ENE,9.2,-,0.02,Rain,Light Rain,70,2012-12-18 06:53:00
2:45 AM,48.2,46.4,93,29.64,10.0,East,5.8,-,0.00,Rain,Light Rain,80,2012-12-18 07:45:00
2:53 AM,48.0,46.9,96,29.64,8.0,East,4.6,-,0.01,Rain,Light Rain,90,2012-12-18 07:53:00
3:53 AM,48.0,46.9,96,29.60,5.0,ENE,5.8,-,0.08,Rain,Rain,60,2012-12-18 08:53:00
4:17 AM,46.4,46.4,100,29.58,8.0,NNE,6.9,-,0.01,Rain,Light Rain,20,2012-12-18 09:17:00
4:24 AM,46.4,46.4,100,29.58,7.0,NNE,6.9,-,0.01,Rain,Light Rain,20,2012-12-18 09:24:00
4:53 AM,48.0,46.9,96,29.57,4.0,NNE,6.9,-,0.03,Rain,Rain,20,2012-12-18 09:53:00
5:29 AM,46.4,46.4,100,29.53,7.0,East,9.2,-,0.03,Rain,Rain,80,2012-12-18 10:29:00
5:39 AM,46.4,46.4,100,29.53,10.0,East,8.1,-,0.03,Rain,Light Rain,90,2012-12-18 10:39:00
5:53 AM,46.9,46.9,100,29.53,9.0,East,5.8,-,0.03,Rain,Light Rain,80,2012-12-18 10:53:00
6:53 AM,48.9,48.0,97,29.51,5.0,East,12.7,18.4,0.02,Rain,Light Rain,100,2012-12-18 11:53:00
7:36 AM,46.4,46.4,100,29.51,1.5,NNW,8.1,-,0.03,Rain,Heavy Rain,330,2012-12-18 12:36:00
7:53 AM,48.0,46.9,96,29.50,1.8,NNE,6.9,-,0.08,Rain,Light Rain,20,2012-12-18 12:53:00
8:45 AM,50.0,50.0,100,29.48,3.0,ESE,5.8,-,0.02,,Overcast,120,2012-12-18 13:45:00
8:53 AM,50.0,48.9,96,29.48,4.0,ESE,5.8,-,0.02,,Overcast,110,2012-12-18 13:53:00
9:08 AM,50.0,50.0,100,29.47,2.0,ESE,5.8,-,N/A,,Overcast,120,2012-12-18 14:08:00
9:15 AM,51.8,50.0,94,29.47,1.5,SE,5.8,-,N/A,,Overcast,130,2012-12-18 14:15:00
9:37 AM,51.8,51.8,100,29.47,0.5,South,9.2,-,N/A,Fog,Fog,180,2012-12-18 14:37:00
9:53 AM,52.0,52.0,100,29.46,0.5,South,6.9,-,N/A,Fog,Fog,190,2012-12-18 14:53:00
10:14 AM,51.8,51.8,100,29.46,1.2,SSW,6.9,-,N/A,,Overcast,200,2012-12-18 15:14:00
10:21 AM,51.8,51.8,100,29.46,3.0,SSW,6.9,-,N/A,,Overcast,210,2012-12-18 15:21:00
10:53 AM,52.0,51.1,97,29.45,5.0,SW,5.8,-,N/A,,Overcast,220,2012-12-18 15:53:00
11:53 AM,51.1,50.0,96,29.42,4.0,WNW,5.8,-,N/A,,Overcast,290,2012-12-18 16:53:00
12:08 PM,53.6,51.8,94,29.43,10.0,Variable,4.6,-,N/A,,Mostly Cloudy,0,2012-12-18 17:08:00
12:53 PM,52.0,50.0,93,29.43,10.0,Variable,3.5,-,N/A,,Overcast,0,2012-12-18 17:53:00
1:49 PM,51.8,48.2,88,29.42,10.0,SW,5.8,-,N/A,,Overcast,220,2012-12-18 18:49:00
1:53 PM,52.0,48.9,89,29.42,10.0,Variable,3.5,-,N/A,,Overcast,0,2012-12-18 18:53:00
2:08 PM,51.8,48.2,88,29.42,10.0,SW,4.6,-,N/A,,Scattered Clouds,230,2012-12-18 19:08:00
2:15 PM,51.8,48.2,88,29.42,10.0,WSW,3.5,-,N/A,,Mostly Cloudy,240,2012-12-18 19:15:00
2:53 PM,50.0,46.9,89,29.42,10.0,Variable,4.6,-,N/A,,Mostly Cloudy,0,2012-12-18 19:53:00
3:53 PM,48.9,46.0,90,29.42,10.0,Calm,Calm,-,N/A,,Overcast,0,2012-12-18 20:53:00
4:53 PM,48.9,45.0,86,29.44,10.0,Calm,Calm,-,N/A,,Overcast,0,2012-12-18 21:53:00
5:26 PM,48.2,44.6,87,29.44,10.0,Calm,Calm,-,N/A,,Overcast,0,2012-12-18 22:26:00
5:36 PM,48.2,44.6,87,29.44,10.0,West,3.5,-,N/A,,Overcast,270,2012-12-18 22:36:00
5:53 PM,48.0,44.1,86,29.45,10.0,Calm,Calm,-,N/A,,Overcast,0,2012-12-18 22:53:00
6:53 PM,46.0,42.1,86,29.45,10.0,Variable,3.5,-,N/A,,Mostly Cloudy,0,2012-12-18 23:53:00
7:17 PM,46.4,41.0,81,29.45,10.0,Variable,5.8,-,N/A,,Scattered Clouds,0,2012-12-19 00:17:00
7:53 PM,45.0,41.0,86,29.46,10.0,WNW,4.6,-,N/A,,Scattered Clouds,290,2012-12-19 00:53:00
8:53 PM,45.0,42.1,90,29.46,10.0,Calm,Calm,-,N/A,,Overcast,0,2012-12-19 01:53:00
9:17 PM,44.6,42.8,93,29.46,10.0,Calm,Calm,-,N/A,,Overcast,0,2012-12-19 02:17:00
9:53 PM,45.0,42.1,90,29.46,10.0,Calm,Calm,-,N/A,,Overcast,0,2012-12-19 02:53:00
10:07 PM,44.6,42.8,93,29.45,10.0,Calm,Calm,-,N/A,,Overcast,0,2012-12-19 03:07:00
10:53 PM,45.0,42.1,90,29.46,10.0,Calm,Calm,-,0.00,Rain,Light Rain,0,2012-12-19 03:53:00
11:53 PM,45.0,42.1,90,29.45,10.0,WNW,6.9,-,0.00,,Overcast,290,2012-12-19 04:53:00